Location: Boiro
(42.6475°N, 8.8834°W)
Time: 11:41:40
(UTC+02:00)

deb Agena D - Pass Details

Date: 09 July 2022
Orbit: 997 x 1025 km, 100.1° (Epoch: 16 August)

Event Time Altitude Azimuth Distance (km) Brightness Sun altitude
Exits shadow 02:05:16 46° 205° (SSW) 1,341 ? -24.5°
Maximum altitude 02:06:54 60° 257° (WSW) 1,160 ? -24.5°
Drops below altitude 10° 02:13:12 10° 338° (NNW) 2,826 ? -24.7°
Sets 02:15:45 0° 342° (NNW) 3,780 ? -24.7°
